Weather History for KMHK - January, 2013

Change the Weather History Date:

Tuesday, January 29, 2013

  Actual Average Record
Temperature  
Mean Temperature 50 °F 30 °F  
Max Temperature 67 °F 42 °F 67 °F (2013)
Min Temperature 33 °F 18 °F 1 °F (2004)
Degree Days  
Heating Degree Days 15 35  
Month to date heating degree days 911 1056  
Since 1 July heating degree days 2832 3197  
Cooling Degree Days 0 0  
Month to date cooling degree days 0 0  
Year to date cooling degree days 0 0  
Moisture  
Dew Point 35 °F    
Average Humidity 83    
Maximum Humidity 96    
Minimum Humidity 70    
Precipitation  
Precipitation 0.20 in 0.04 in 0.25 in (2001)
Month to date precipitation 0.58 0.57  
Year to date precipitation 0.58 0.57  
Sea Level Pressure  
Sea Level Pressure 29.62 in    
Wind  
Wind Speed 8 mph (North)    
Max Wind Speed 21 mph    
Max Gust Speed 26 mph    
Visibility 8 miles    
Events Snow    
T = Trace of Precipitation, MM = Missing Value Source: NWS Daily Summary

Daily Weather History Graph

Daily Weather History Graph

Search for Another Location

Airport or City:

Trip Planner

Search our weather history database for the weather conditions in past years. The results will help you decide how hot, cold, wet, or windy it might be!

Date:

Astronomy

Jan. 29, 2013 Rise Set
Actual Time 7:35 AM CST 5:44 PM CST
Civil Twilight 7:07 AM CST 6:12 PM CST
Nautical Twilight 6:35 AM CST 6:45 PM CST
Astronomical Twilight 6:03 AM CST 7:16 PM CST
Moon 8:40 PM CST (1/29) 8:34 AM CST (1/29)
Length of Visible Light 11h 05m
Length of Day
10h 08m
Waning Gibbous, 93% of the Moon is Illuminated
Jan 29
Waning Gibbous
Feb 3
Last Quarter
Feb 10
New
Feb 17
First Quarter
Feb 25
Full

Hourly Weather History & Observations

Time (CST) Temp. Windchill Dew Point Humidity Pressure Visibility Wind Dir Wind Speed Gust Speed Precip Events Conditions
12:52 AM 66.9 °F - 60.1 °F 79% 29.54 in 10.0 mi SSW 15.0 mph 24.2 mph N/A   Clear
1:52 AM 66.0 °F - 57.9 °F 75% 29.52 in 10.0 mi SW 15.0 mph - N/A   Clear
2:11 AM 66.2 °F - 57.2 °F 73% 29.58 in 10.0 mi West 13.8 mph 23.0 mph N/A   Scattered Clouds
2:52 AM 46.0 °F 43.1 °F 41.0 °F 83% 29.62 in 10.0 mi Variable 5.8 mph 18.4 mph N/A   Clear
3:16 AM 42.8 °F 40.1 °F 39.2 °F 87% 29.64 in 10.0 mi Variable 4.6 mph - N/A   Scattered Clouds
3:26 AM 42.8 °F 40.1 °F 39.2 °F 87% 29.64 in 9.0 mi WNW 4.6 mph - N/A   Mostly Cloudy
3:52 AM 43.0 °F 38.8 °F 39.0 °F 86% 29.64 in 9.0 mi Variable 6.9 mph - N/A   Overcast
4:52 AM 41.0 °F 37.1 °F 37.9 °F 89% 29.67 in 9.0 mi NNW 5.8 mph - N/A   Overcast
5:52 AM 39.0 °F - 36.0 °F 89% 29.70 in 10.0 mi Calm Calm - N/A   Overcast
6:52 AM 39.0 °F 35.7 °F 35.1 °F 86% 29.66 in 10.0 mi Variable 4.6 mph - N/A   Overcast
7:42 AM 37.4 °F 31.4 °F 33.8 °F 87% 29.65 in 10.0 mi NNW 8.1 mph - N/A   Overcast
7:52 AM 37.9 °F 32.7 °F 34.0 °F 86% 29.66 in 10.0 mi NNW 6.9 mph - N/A   Overcast
8:52 AM 37.9 °F 35.5 °F 33.1 °F 83% 29.70 in 9.0 mi Variable 3.5 mph - N/A   Overcast
9:52 AM 37.9 °F 32.1 °F 33.1 °F 83% 29.66 in 7.0 mi NNE 8.1 mph - N/A   Overcast
10:52 AM 37.9 °F 30.5 °F 32.0 °F 79% 29.64 in 6.0 mi NNE 11.5 mph - N/A   Haze
11:52 AM 39.0 °F 34.0 °F 32.0 °F 76% 29.65 in 6.0 mi North 6.9 mph - N/A   Haze
12:52 PM 39.0 °F 33.4 °F 32.0 °F 76% 29.60 in 7.0 mi North 8.1 mph - N/A   Overcast
1:21 PM 39.2 °F 34.2 °F 30.2 °F 70% 29.60 in 10.0 mi Variable 6.9 mph - N/A   Overcast
1:52 PM 39.0 °F 32.8 °F 30.9 °F 73% 29.58 in 9.0 mi North 9.2 mph - N/A   Overcast
2:52 PM 37.9 °F 29.6 °F 30.9 °F 76% 29.57 in 9.0 mi NNE 13.8 mph 19.6 mph N/A   Overcast
3:14 PM 37.4 °F 32.1 °F 30.2 °F 75% 29.59 in 8.0 mi North 6.9 mph - N/A   Overcast
3:52 PM 37.0 °F 31.6 °F 30.9 °F 79% 29.62 in 7.0 mi North 6.9 mph - N/A   Overcast
4:52 PM 37.0 °F 28.9 °F 30.9 °F 79% 29.62 in 7.0 mi NNE 12.7 mph 18.4 mph N/A   Overcast
5:52 PM 37.0 °F 33.3 °F 30.0 °F 76% 29.65 in 9.0 mi NNE 4.6 mph - N/A   Overcast
6:52 PM 35.1 °F 25.9 °F 30.0 °F 82% 29.61 in 6.0 mi NNE 13.8 mph - 0.00 in Snow Light Snow
7:52 PM 35.1 °F 27.9 °F 30.0 °F 82% 29.60 in 7.0 mi NNE 9.2 mph - 0.00 in   Overcast
8:52 PM 35.1 °F 27.9 °F 30.0 °F 82% 29.60 in 7.0 mi NNE 9.2 mph - N/A   Overcast
9:52 PM 36.0 °F 31.1 °F 30.0 °F 79% 29.64 in 8.0 mi North 5.8 mph - N/A   Overcast
10:29 PM 35.6 °F 30.7 °F 30.2 °F 81% 29.61 in 1.8 mi North 5.8 mph - 0.05 in Snow Light Snow
10:52 PM 34.0 °F 31.0 °F 32.0 °F 92% 29.62 in 0.8 mi Variable 3.5 mph - 0.09 in Snow Light Snow
10:59 PM 33.8 °F 27.7 °F 32.0 °F 93% 29.58 in 0.8 mi North 6.9 mph - 0.02 in Snow Light Snow
11:52 PM 34.0 °F 29.8 °F 32.0 °F 92% 29.63 in 0.8 mi Variable 4.6 mph - 0.10 in Snow Light Snow